Location: Bay Ridge
(40.6340°N, 74.0146°W)
Time: 07:38:43
(UTC+00:00)

COBE Rocket - Pass Details

Date: 15 November 2019
Orbit: 679 x 783 km, 97.1° (Epoch: 07 December)

Event Time Altitude Azimuth Distance (km) Brightness Sun altitude
Rises 10:22:53 0° 186° (S) 3,254 7.3 -15.2°
Reaches altitude 10° 10:25:19 10° 193° (SSW) 2,328 6.5 -14.7°
Maximum altitude 10:30:11 41° 263° (W) 1,107 4.4 -13.8°
Drops below altitude 10° 10:35:01 10° 334° (NNW) 2,309 6.1 -12.9°
Sets 10:37:26 0° 341° (NNW) 3,225 6.9 -12.5°
